Terminal Aerodrome Forecast
Issued by NWS

Home | Current Version | Previous Version | Text Only | Print | Product List | Glossary On
Versions: 1 2 3 4 5 6 7 8 9 10 11 12 13 14
000
FTUS46 KLOX 171700
TAFLGB
TAF
KLGB 171732Z 1718/1818 VRB05KT P6SM SCT100
     FM172300 28008KT P6SM SCT100
     FM180400 VRB03KT P6SM SKC
     FM180800 VRB03KT P6SM OVC010
     FM181700 25007KT P6SM SCT015=

USA.gov is the U.S. government's official web portal to all federal, state and local government web resources and services.